Volkel, Netherlands

12:27 AM CEST on September 27, 2016 (GMT +0200)
Volkel Air Base

Weather History for EHVK - November, 2012

Change the Weather History Date:

Sunday, November 18, 2012

  Actual Average Record
Temperature  
Mean Temperature 39 °F -  
Max Temperature 48 °F 45 °F 57 °F (2015)
Min Temperature 28 °F 35 °F 24 °F (2007)
Degree Days  
Heating Degree Days 26    
Moisture  
Dew Point 44 °F    
Average Humidity 99    
Maximum Humidity 100    
Minimum Humidity 87    
Precipitation  
Precipitation 0.00 in - - ()
Sea Level Pressure  
Sea Level Pressure 29.90 in    
Wind  
Wind Speed 4 mph ()    
Max Wind Speed 7 mph    
Max Gust Speed -    
Visibility 2.6 miles    
Events Fog , Rain , Snow    
Averages and records for this station are not official NWS values.
T = Trace of Precipitation, MM = Missing Value Source: Averaged Metar Reports

Daily Weather History Graph

Daily Weather History Graph

Search for Another Location

Airport or City:

Trip Planner

Search our weather history database for the weather conditions in past years. The results will help you decide how hot, cold, wet, or windy it might be!

Date:

Astronomy

Nov. 18, 2012 Rise Set
Actual Time 8:01 AM CET 4:42 PM CET
Civil Twilight 7:23 AM CET 5:20 PM CET
Nautical Twilight 6:42 AM CET 6:01 PM CET
Astronomical Twilight 6:02 AM CET 6:41 PM CET
Moon 12:12 PM CET (11/18) 9:52 PM CET (11/18)
Length of Visible Light 9h 56m
Length of Day
8h 41m
Waxing Crescent, 27% of the Moon is Illuminated
Nov 18
Waxing Crescent
Nov 20
First Quarter
Nov 28
Full
Dec 6
Last Quarter
Dec 13
New

Hourly Weather History & Observations

Time (CET) Temp. Windchill Dew Point Humidity Pressure Visibility Wind Dir Wind Speed Gust Speed Precip Events Conditions
12:25 AM 46.4 °F 42.9 °F 46.4 °F 100% 29.80 in 3.7 mi SSW 6.9 mph - N/A   Overcast
12:29 AM 46.4 °F 43.5 °F 46.4 °F 100% 29.80 in 3.1 mi SSW 5.8 mph - N/A   Overcast
12:32 AM 46.4 °F 42.9 °F 46.4 °F 100% 29.80 in - SSW 6.9 mph - N/A   Overcast
12:48 AM 46.4 °F 43.5 °F 46.4 °F 100% 29.80 in 2.2 mi SSW 5.8 mph - N/A   Overcast
12:55 AM 46.4 °F 43.5 °F 46.4 °F 100% 29.80 in - SSW 5.8 mph - N/A   Overcast
1:25 AM 46.4 °F 44.3 °F 46.4 °F 100% 29.80 in 1.5 mi SSW 4.6 mph - N/A   Overcast
1:55 AM 46.4 °F 43.5 °F 46.4 °F 100% 29.80 in 1.7 mi SSW 5.8 mph - N/A   Overcast
2:25 AM 46.4 °F 43.5 °F 46.4 °F 100% 29.80 in 1.2 mi SSW 5.8 mph - N/A   Drizzle
2:29 AM 46.4 °F 43.5 °F 46.4 °F 100% 29.80 in 1.1 mi SSW 5.8 mph - N/A   Overcast
2:35 AM 46.4 °F 44.3 °F 46.4 °F 100% 29.80 in 0.9 mi SSW 4.6 mph - N/A   Overcast
2:38 AM 46.4 °F 44.3 °F 46.4 °F 100% 29.80 in 0.9 mi SSW 4.6 mph - N/A   Overcast
2:42 AM 46.4 °F 44.3 °F 46.4 °F 100% 29.80 in 0.9 mi SSW 4.6 mph - N/A   Overcast
2:55 AM 46.4 °F 44.3 °F 46.4 °F 100% 29.80 in 1.0 mi SSW 4.6 mph - N/A   Mostly Cloudy
2:56 AM 46.4 °F 44.3 °F 46.4 °F 100% 29.80 in 1.0 mi SSW 4.6 mph - N/A   Mostly Cloudy
3:25 AM 46.4 °F 45.2 °F 46.4 °F 100% 29.80 in 0.8 mi SW 3.5 mph - N/A   Overcast
3:55 AM 46.4 °F 44.3 °F 46.4 °F 100% 29.80 in 0.7 mi SSW 4.6 mph - N/A   Drizzle
4:25 AM 46.4 °F 45.2 °F 46.4 °F 100% 29.80 in 0.8 mi SW 3.5 mph - N/A Rain Light Rain
4:55 AM 46.4 °F 45.2 °F 46.4 °F 100% 29.80 in 0.9 mi SW 3.5 mph - N/A Rain Light Rain
5:10 AM 46.4 °F 44.3 °F 46.4 °F 100% 29.80 in 1.1 mi SW 4.6 mph - N/A Rain Light Rain
5:25 AM 46.4 °F 45.2 °F 46.4 °F 100% 29.80 in 1.1 mi WSW 3.5 mph - N/A Rain Light Rain
5:55 AM 46.4 °F 45.2 °F 46.4 °F 100% 29.80 in 2.2 mi WNW 3.5 mph - N/A Rain Light Rain
6:08 AM 46.4 °F 43.5 °F 46.4 °F 100% 29.80 in 2.8 mi NNW 5.8 mph - N/A Rain Light Rain
6:25 AM 46.4 °F 42.9 °F 46.4 °F 100% 29.80 in 5.6 mi North 6.9 mph - N/A   Light Drizzle
6:38 AM 46.4 °F 44.3 °F 46.4 °F 100% 29.83 in 5.6 mi North 4.6 mph - N/A   Drizzle
6:45 AM 46.4 °F 43.5 °F 46.4 °F 100% 29.83 in 4.3 mi North 5.8 mph - N/A Rain Light Rain
6:55 AM 46.4 °F 44.3 °F 46.4 °F 100% 29.83 in 4.3 mi NNW 4.6 mph - N/A Rain Light Rain
7:11 AM 46.4 °F 45.2 °F 46.4 °F 100% 29.83 in 4.3 mi NW 3.5 mph - N/A   Light Drizzle
7:20 AM 46.4 °F 45.2 °F 46.4 °F 100% 29.83 in - NNW 3.5 mph - N/A   Light Drizzle
7:25 AM 46.4 °F 45.2 °F 46.4 °F 100% 29.83 in - NNW 3.5 mph - N/A   Drizzle
7:26 AM 46.4 °F 45.2 °F 46.4 °F 100% 29.83 in - NW 3.5 mph - N/A Rain Rain
7:41 AM 46.4 °F 45.2 °F 46.4 °F 100% 29.86 in 1.7 mi NW 3.5 mph - N/A Rain Light Rain
7:45 AM 46.4 °F 45.2 °F 46.4 °F 100% 29.86 in 1.6 mi NW 3.5 mph - N/A Rain Light Rain
7:49 AM 46.4 °F 45.2 °F 46.4 °F 100% 29.83 in 1.4 mi NNW 3.5 mph - N/A Rain Light Rain
7:55 AM 46.4 °F 45.2 °F 46.4 °F 100% 29.83 in 1.4 mi NNW 3.5 mph - N/A Rain Light Rain
7:59 AM 46.4 °F 45.2 °F 46.4 °F 100% 29.83 in 1.3 mi NNW 3.5 mph - N/A Rain Light Rain
8:17 AM 46.4 °F - 46.4 °F 100% 29.86 in 1.7 mi WNW 2.3 mph - N/A   Drizzle
8:25 AM 46.4 °F 45.2 °F 46.4 °F 100% 29.86 in 1.9 mi NW 3.5 mph - N/A   Drizzle
8:55 AM 46.4 °F - 46.4 °F 100% 29.86 in - North 2.3 mph - N/A Rain Rain
9:00 AM 46.4 °F - 46.4 °F 100% 29.86 in - North 2.3 mph - N/A Rain Light Rain
9:04 AM 46.4 °F - 46.4 °F 100% 29.86 in - North 2.3 mph - N/A Rain Light Rain
9:09 AM 46.4 °F - 46.4 °F 100% 29.86 in - North 2.3 mph - N/A Rain Light Rain
9:13 AM 46.4 °F - 46.4 °F 100% 29.86 in - NW 2.3 mph - N/A   Drizzle
9:25 AM 46.4 °F 45.2 °F 46.4 °F 100% 29.89 in - NW 3.5 mph - N/A Rain Light Rain
9:50 AM 46.4 °F - 46.4 °F 100% 29.89 in - NNW 2.3 mph - N/A   Light Drizzle
9:55 AM 46.4 °F - 46.4 °F 100% 29.89 in - NNW 2.3 mph - N/A   Overcast
9:59 AM 46.4 °F 45.2 °F 46.4 °F 100% 29.89 in 2.5 mi NW 3.5 mph - N/A Rain Light Rain
10:19 AM 46.4 °F 45.2 °F 46.4 °F 100% 29.89 in - NNW 3.5 mph - N/A   Mostly Cloudy
10:25 AM 46.4 °F 45.2 °F 46.4 °F 100% 29.89 in - North 3.5 mph - N/A Rain Light Rain
10:29 AM 46.4 °F 45.2 °F 46.4 °F 100% 29.89 in 3.1 mi NNW 3.5 mph - N/A Rain Light Rain
10:33 AM 46.4 °F 45.2 °F 46.4 °F 100% 29.89 in 2.8 mi NW 3.5 mph - N/A Rain Light Rain
10:37 AM 46.4 °F - 46.4 °F 100% 29.89 in 3.1 mi NW 2.3 mph - N/A Rain Light Rain
10:41 AM 46.4 °F - 46.4 °F 100% 29.89 in - NNW 2.3 mph - N/A Rain Light Rain
10:46 AM 46.4 °F - 46.4 °F 100% 29.89 in - NNW 2.3 mph - N/A   Drizzle
10:55 AM 46.4 °F 45.2 °F 46.4 °F 100% 29.92 in - WNW 3.5 mph - N/A Rain Rain
11:03 AM 46.4 °F 45.2 °F 46.4 °F 100% 29.92 in 3.1 mi WNW 3.5 mph - N/A Rain Light Rain
11:04 AM 46.4 °F - 46.4 °F 100% 29.92 in 2.8 mi NW 2.3 mph - N/A Rain Rain
11:13 AM 46.4 °F - 46.4 °F 100% 29.92 in 3.1 mi WNW 2.3 mph - N/A Rain Light Rain
11:25 AM 46.4 °F - 46.4 °F 100% 29.92 in 3.1 mi NW 2.3 mph - N/A Rain Rain
11:55 AM 46.4 °F 45.2 °F 46.4 °F 100% 29.92 in 3.1 mi WNW 3.5 mph - N/A   Mostly Cloudy
11:58 AM 46.4 °F 45.2 °F 46.4 °F 100% 29.92 in - WNW 3.5 mph - N/A   Mostly Cloudy
12:04 PM 46.4 °F 45.2 °F 46.4 °F 100% 29.92 in 3.1 mi WNW 3.5 mph - N/A   Mostly Cloudy
12:15 PM 46.4 °F 45.2 °F 46.4 °F 100% 29.92 in 3.7 mi NW 3.5 mph - N/A Rain Light Rain
12:18 PM 46.4 °F 45.2 °F 46.4 °F 100% 29.92 in 5.0 mi NW 3.5 mph - N/A Rain Light Rain
12:25 PM 46.4 °F 44.3 °F 46.4 °F 100% 29.92 in 5.0 mi NW 4.6 mph - N/A Rain Light Rain
12:36 PM 46.4 °F 45.2 °F 44.6 °F 93% 29.92 in 5.6 mi NW 3.5 mph - N/A Rain Light Rain
12:55 PM 46.4 °F - 44.6 °F 93% 29.92 in 5.0 mi North 2.3 mph - N/A Rain Light Rain
1:25 PM 46.4 °F 45.2 °F 46.4 °F 100% 29.95 in 5.0 mi WNW 3.5 mph - N/A Rain Light Rain
1:42 PM 46.4 °F 45.2 °F 46.4 °F 100% 29.95 in 4.3 mi WNW 3.5 mph - N/A   Overcast
1:45 PM 46.4 °F 45.2 °F 46.4 °F 100% 29.95 in 5.6 mi NW 3.5 mph - N/A   Overcast
1:55 PM 46.4 °F - 46.4 °F 100% 29.95 in 6.2 mi NNW 2.3 mph - N/A   Overcast
2:06 PM 46.4 °F - 44.6 °F 93% 29.92 in 6.2 mi NNW 2.3 mph - N/A   Overcast
2:25 PM 48.2 °F - 44.6 °F 87% 29.95 in 6.2 mi NW 2.3 mph - N/A   Overcast
2:55 PM 48.2 °F - 44.6 °F 87% 29.95 in 6.2 mi NW 2.3 mph - N/A   Mostly Cloudy
3:25 PM 46.4 °F - 44.6 °F 93% 29.95 in 6.2 mi NW 2.3 mph - N/A   Mostly Cloudy
3:55 PM 46.4 °F - 44.6 °F 93% 29.95 in 6.2 mi North 1.2 mph - N/A   Unknown
4:25 PM 44.6 °F - 42.8 °F 93% 29.98 in 6.2 mi South 1.2 mph - N/A   Unknown
4:34 PM 44.6 °F - 42.8 °F 93% 29.98 in 4.3 mi SW 2.3 mph - N/A   Mist
4:38 PM 42.8 °F - 42.8 °F 100% 29.98 in 5.0 mi West 2.3 mph - N/A   Mist
4:42 PM 42.8 °F - 41.0 °F 93% 29.98 in 3.7 mi West 2.3 mph - N/A   Mist
4:48 PM 39.2 °F - 37.4 °F 93% 29.98 in - SSW 2.3 mph - N/A   Mist
4:55 PM 41.0 °F - 41.0 °F 100% 29.98 in 0.5 mi SE 1.2 mph - N/A Fog Fog
4:59 PM 41.0 °F - 41.0 °F 100% 29.98 in 0.2 mi Calm Calm - N/A Fog Fog
5:03 PM 41.0 °F - 39.2 °F 93% 29.98 in 0.2 mi SE 1.2 mph - N/A Fog Fog
5:10 PM 41.0 °F - 39.2 °F 93% 29.98 in 0.2 mi South 1.2 mph - N/A Fog Fog
5:25 PM 39.2 °F - 39.2 °F 100% 29.98 in 0.2 mi SSE 1.2 mph - N/A Fog Fog
5:55 PM 37.4 °F - 37.4 °F 100% 30.01 in 0.2 mi SW 1.2 mph - N/A Fog Fog
6:25 PM 37.4 °F - 35.6 °F 93% 30.01 in 0.4 mi West 1.2 mph - N/A Fog Fog
6:55 PM 35.6 °F - 33.8 °F 93% 30.01 in - WSW 1.2 mph - N/A Fog Fog
7:25 PM 33.8 °F - 33.8 °F 100% 30.04 in 0.2 mi WSW 1.2 mph - N/A Fog Fog
7:55 PM 33.8 °F - 32.0 °F 93% 30.04 in 0.2 mi North 1.2 mph - N/A Fog Fog
8:25 PM 32.0 °F - 32.0 °F 100% 30.04 in 0.2 mi Calm Calm - N/A Fog Fog
8:55 PM 32.0 °F - 32.0 °F 100% 30.04 in - Calm Calm - N/A Fog Fog
9:25 PM 32.0 °F - 30.2 °F 93% 30.04 in 0.4 mi Calm Calm - N/A Fog Light Freezing Fog
9:55 PM 32.0 °F - 30.2 °F 93% 30.04 in 0.3 mi ESE 1.2 mph - N/A Fog Light Freezing Fog
10:25 PM 30.2 °F - 30.2 °F 100% 30.04 in 0.1 mi East 1.2 mph - N/A   Overcast
10:55 PM 30.2 °F - 30.2 °F 100% 30.06 in 0.1 mi Calm Calm - N/A Fog Light Freezing Fog
11:25 PM 30.2 °F - 30.2 °F 100% 30.06 in 0.2 mi Calm Calm - N/A Fog Light Freezing Fog
11:55 PM 28.4 °F - 28.4 °F 100% 30.06 in 0.1 mi ESE 1.2 mph - N/A Snow Light Snow